ARG1395 SUMU-SAZS

Flight info

Callsign ARG1395
Flight time N/A
Altitude FL360
Route CRR DARKA UM792 MDP UW32 BCA UW34 ORERA ORER2Q
Aircraft B38M/M-SDE2E3FGHIRWXY/LB1

Departure

Time 2026-04-29 16:52
Airport Carrasco General Cesáreo L. Berisso International Airport (SUMU)

Arrival

Time N/A
Airport Teniente Luis Candelaria International Airport (SAZS)
Time Latitude Longitude Altitude Speed Heading
2026-04-29 16:18 -34.83573 -56.01729 84 ft 0 kts 143°
2026-04-29 16:41 -34.83561 -56.01739 88 ft 4 kts 143°
2026-04-29 16:41 -34.83539 -56.01758 89 ft 4 kts 143°
2026-04-29 16:42 -34.83520 -56.01774 88 ft 4 kts 163°
2026-04-29 16:42 -34.83499 -56.01770 90 ft 4 kts 223°
2026-04-29 16:42 -34.83486 -56.01753 89 ft 1 kts 233°
2026-04-29 16:42 -34.83484 -56.01750 89 ft 0 kts 233°
2026-04-29 16:46 -34.83485 -56.01751 89 ft 1 kts 233°
2026-04-29 16:46 -34.83494 -56.01765 90 ft 4 kts 232°
2026-04-29 16:46 -34.83515 -56.01799 89 ft 7 kts 234°
2026-04-29 16:46 -34.83548 -56.01854 90 ft 10 kts 232°
2026-04-29 16:47 -34.83595 -56.01930 88 ft 13 kts 233°
2026-04-29 16:47 -34.83654 -56.02028 86 ft 16 kts 235°
2026-04-29 16:47 -34.83723 -56.02141 87 ft 17 kts 232°
2026-04-29 16:47 -34.83779 -56.02222 84 ft 13 kts 215°
2026-04-29 16:48 -34.83869 -56.02244 89 ft 14 kts 187°
2026-04-29 16:48 -34.83942 -56.02273 84 ft 10 kts 246°
2026-04-29 16:48 -34.83946 -56.02364 84 ft 12 kts 270°
2026-04-29 16:48 -34.83946 -56.02471 84 ft 14 kts 270°
2026-04-29 16:49 -34.83945 -56.02592 84 ft 15 kts 270°
2026-04-29 16:49 -34.83974 -56.02721 86 ft 17 kts 237°
2026-04-29 16:49 -34.84012 -56.02847 86 ft 16 kts 269°
2026-04-29 16:49 -34.84011 -56.02948 84 ft 6 kts 270°
2026-04-29 16:50 -34.84010 -56.02958 84 ft 0 kts 270°
2026-04-29 16:50 -34.84010 -56.02963 84 ft 0 kts 271°
2026-04-29 16:51 -34.84010 -56.02970 84 ft 3 kts 271°
2026-04-29 16:51 -34.84010 -56.03044 86 ft 11 kts 273°
2026-04-29 16:52 -34.83891 -56.03078 86 ft 44 kts 359°
2026-04-29 16:52 -34.83342 -56.03090 88 ft 111 kts 359°
2026-04-29 16:52 -34.82386 -56.03099 100 ft 159 kts 355°
2026-04-29 16:52 -34.81363 -56.02878 793 ft 156 kts
2026-04-29 16:53 -34.80201 -56.02586 1039 ft 187 kts 14°
2026-04-29 16:53 -34.79264 -56.01481 1618 ft 193 kts 73°
2026-04-29 16:53 -34.79338 -55.99900 2086 ft 194 kts 126°
2026-04-29 16:53 -34.80332 -55.98845 2460 ft 196 kts 156°
2026-04-29 16:54 -34.81529 -55.97879 2810 ft 214 kts 157°
2026-04-29 16:54 -34.82943 -55.97360 3279 ft 215 kts 185°
2026-04-29 16:54 -34.84360 -55.97959 3667 ft 225 kts 224°
2026-04-29 16:54 -34.85414 -55.99276 4722 ft 219 kts 220°
2026-04-29 16:55 -34.86843 -56.00129 5289 ft 241 kts 202°
2026-04-29 16:55 -34.88447 -56.00892 5918 ft 253 kts 206°
2026-04-29 16:55 -34.90058 -56.01735 6824 ft 254 kts 207°
2026-04-29 16:55 -34.91678 -56.02625 7647 ft 258 kts 207°
2026-04-29 16:56 -34.93312 -56.03545 8507 ft 261 kts 208°
2026-04-29 16:56 -34.94956 -56.04485 9389 ft 263 kts 208°
2026-04-29 16:56 -34.96620 -56.05446 10172 ft 268 kts 208°
2026-04-29 16:56 -34.98353 -56.06450 10558 ft 286 kts 208°
2026-04-29 16:57 -35.00213 -56.07527 10868 ft 306 kts 208°
2026-04-29 16:57 -35.02172 -56.08664 11314 ft 319 kts 208°
2026-04-29 16:57 -35.04177 -56.09835 12062 ft 321 kts 208°
2026-04-29 16:57 -35.06196 -56.11021 12807 ft 325 kts 209°
2026-04-29 16:58 -35.08237 -56.12222 13563 ft 328 kts 209°
2026-04-29 16:58 -35.10293 -56.13433 14241 ft 330 kts 209°
2026-04-29 16:58 -35.12362 -56.14653 14953 ft 331 kts 209°
2026-04-29 16:58 -35.14438 -56.15878 15680 ft 333 kts 209°
2026-04-29 16:59 -35.16525 -56.17110 16380 ft 334 kts 209°
2026-04-29 16:59 -35.18617 -56.18347 17072 ft 336 kts 209°
2026-04-29 16:59 -35.20722 -56.19592 17745 ft 338 kts 209°
2026-04-29 16:59 -35.22840 -56.20845 18373 ft 340 kts 210°
2026-04-29 17:00 -35.24969 -56.22106 18943 ft 341 kts 210°
2026-04-29 17:00 -35.27105 -56.23373 19495 ft 343 kts 210°
2026-04-29 17:00 -35.29259 -56.24649 20038 ft 346 kts 209°
2026-04-29 17:00 -35.31506 -56.25748 20564 ft 350 kts 206°
2026-04-29 17:01 -35.33780 -56.26820 21101 ft 352 kts 206°
2026-04-29 17:01 -35.36065 -56.27912 21635 ft 354 kts 206°
2026-04-29 17:01 -35.38358 -56.29014 22152 ft 356 kts 206°
2026-04-29 17:01 -35.40665 -56.30127 22656 ft 359 kts 206°
2026-04-29 17:02 -35.42992 -56.31251 23161 ft 361 kts 206°
2026-04-29 17:02 -35.45331 -56.32382 23627 ft 363 kts 207°
2026-04-29 17:02 -35.47683 -56.33520 24028 ft 365 kts 207°
2026-04-29 17:02 -35.50048 -56.34666 24420 ft 368 kts 207°
2026-04-29 17:03 -35.52431 -56.35821 24820 ft 370 kts 206°
2026-04-29 17:03 -35.54826 -56.36982 25215 ft 372 kts 206°
2026-04-29 17:03 -35.57234 -56.38151 25597 ft 374 kts 206°
2026-04-29 17:03 -35.59660 -56.39329 25975 ft 376 kts 206°
2026-04-29 17:04 -35.62096 -56.40513 26333 ft 379 kts 207°
2026-04-29 17:04 -35.64549 -56.41706 26697 ft 381 kts 206°
2026-04-29 17:04 -35.67011 -56.42903 27072 ft 382 kts 206°
2026-04-29 17:04 -35.69488 -56.44110 27418 ft 385 kts 206°
2026-04-29 17:05 -35.71980 -56.45324 27757 ft 387 kts 206°
2026-04-29 17:05 -35.74485 -56.46546 28079 ft 390 kts 206°
2026-04-29 17:05 -35.77010 -56.47777 28414 ft 392 kts 206°
2026-04-29 17:05 -35.79545 -56.49015 28741 ft 394 kts 206°
2026-04-29 17:06 -35.82092 -56.50260 29050 ft 396 kts 206°
2026-04-29 17:06 -35.84656 -56.51513 29364 ft 398 kts 206°
2026-04-29 17:06 -35.87237 -56.52775 29671 ft 401 kts 206°
2026-04-29 17:06 -35.89826 -56.54043 29958 ft 403 kts 206°
2026-04-29 17:07 -35.92430 -56.55319 30203 ft 405 kts 206°
2026-04-29 17:07 -35.95049 -56.56603 30451 ft 407 kts 206°
2026-04-29 17:07 -35.97679 -56.57893 30733 ft 408 kts 206°
2026-04-29 17:07 -36.00306 -56.59183 31076 ft 407 kts 206°
2026-04-29 17:08 -36.02932 -56.60474 31406 ft 407 kts 206°
2026-04-29 17:08 -36.05555 -56.61763 31731 ft 407 kts 206°
2026-04-29 17:08 -36.08174 -56.63052 32059 ft 406 kts 206°
2026-04-29 17:08 -36.10791 -56.64341 32391 ft 406 kts 206°
2026-04-29 17:09 -36.13409 -56.65631 32722 ft 405 kts 206°
2026-04-29 17:09 -36.16018 -56.66917 33026 ft 405 kts 206°
2026-04-29 17:09 -36.18631 -56.68207 33349 ft 405 kts 206°
2026-04-29 17:09 -36.21240 -56.69495 33656 ft 404 kts 206°
2026-04-29 17:10 -36.23843 -56.70782 33943 ft 404 kts 207°
2026-04-29 17:10 -36.26449 -56.72070 34163 ft 404 kts 207°
2026-04-29 17:10 -36.29054 -56.73359 34393 ft 405 kts 207°
2026-04-29 17:10 -36.31664 -56.74652 34614 ft 405 kts 207°
2026-04-29 17:11 -36.34273 -56.75945 34839 ft 405 kts 207°
2026-04-29 17:11 -36.36888 -56.77243 35040 ft 406 kts 207°
2026-04-29 17:11 -36.39505 -56.78541 35252 ft 406 kts 207°
2026-04-29 17:11 -36.42127 -56.79844 35475 ft 406 kts 207°
2026-04-29 17:12 -36.44744 -56.81144 35672 ft 407 kts 207°
2026-04-29 17:12 -36.47372 -56.82451 35796 ft 408 kts 207°
2026-04-29 17:12 -36.51749 -56.84630 35807 ft 407 kts 207°
2026-04-29 17:13 -36.57868 -56.87682 35805 ft 407 kts 207°
2026-04-29 17:13 -36.63120 -56.90304 35802 ft 408 kts 207°
2026-04-29 17:14 -36.68375 -56.92932 35797 ft 408 kts 207°
2026-04-29 17:14 -36.73632 -56.95568 35798 ft 408 kts 207°
2026-04-29 17:15 -36.78869 -56.98253 35795 ft 408 kts 207°
2026-04-29 17:15 -36.84112 -57.00941 35793 ft 408 kts 207°
2026-04-29 17:16 -36.89360 -57.03633 35788 ft 409 kts 207°
2026-04-29 17:16 -36.94610 -57.06331 35786 ft 409 kts 208°
2026-04-29 17:17 -36.99863 -57.09034 35780 ft 409 kts 207°
2026-04-29 17:17 -37.05118 -57.11743 35780 ft 409 kts 208°
2026-04-29 17:18 -37.10376 -57.14457 35773 ft 410 kts 208°
2026-04-29 17:18 -37.15633 -57.17175 35773 ft 410 kts 208°
2026-04-29 17:19 -37.20897 -57.19900 35772 ft 410 kts 208°
2026-04-29 17:19 -37.26158 -57.22628 35761 ft 410 kts 208°
2026-04-29 17:20 -37.31429 -57.25365 35759 ft 411 kts 208°
2026-04-29 17:20 -37.36699 -57.28106 35756 ft 411 kts 208°
2026-04-29 17:21 -37.41969 -57.30851 35753 ft 411 kts 208°
2026-04-29 17:21 -37.47244 -57.33603 35751 ft 411 kts 208°
2026-04-29 17:22 -37.52519 -57.36359 35750 ft 412 kts 208°
2026-04-29 17:22 -37.57801 -57.39123 35744 ft 412 kts 208°
2026-04-29 17:23 -37.63082 -57.41892 35743 ft 412 kts 208°
2026-04-29 17:23 -37.68367 -57.44665 35746 ft 412 kts 208°
2026-04-29 17:24 -37.73654 -57.47445 35741 ft 412 kts 208°
2026-04-29 17:24 -37.78938 -57.50227 35740 ft 412 kts 208°
2026-04-29 17:25 -37.84224 -57.53014 35744 ft 413 kts 208°
2026-04-29 17:25 -37.89429 -57.55977 35732 ft 405 kts 219°
2026-04-29 17:26 -37.91493 -57.58314 35753 ft 396 kts 233°
2026-04-29 17:26 -37.92950 -57.61241 35736 ft 394 kts 247°
2026-04-29 17:26 -37.94745 -57.67805 35742 ft 396 kts 253°
2026-04-29 17:27 -37.96194 -57.74527 35754 ft 396 kts 255°
2026-04-29 17:27 -37.97533 -57.81280 35751 ft 396 kts 255°
2026-04-29 17:28 -37.98836 -57.88050 35745 ft 396 kts 256°
2026-04-29 17:28 -38.00129 -57.94824 35740 ft 396 kts 256°
2026-04-29 17:29 -38.01417 -58.01599 35736 ft 396 kts 256°
2026-04-29 17:29 -38.02488 -58.07249 35743 ft 396 kts 256°
2026-04-29 17:30 -38.03982 -58.15155 35756 ft 396 kts 256°
2026-04-29 17:30 -38.05257 -58.21931 35744 ft 396 kts 256°
2026-04-29 17:31 -38.06529 -58.28711 35746 ft 396 kts 256°
2026-04-29 17:31 -38.07796 -58.35489 35749 ft 396 kts 256°
2026-04-29 17:32 -38.09059 -58.42272 35757 ft 396 kts 256°
2026-04-29 17:32 -38.10319 -58.49054 35764 ft 396 kts 256°
2026-04-29 17:33 -38.11573 -58.55837 35763 ft 395 kts 256°
2026-04-29 17:33 -38.12824 -58.62621 35771 ft 395 kts 256°
2026-04-29 17:34 -38.14072 -58.69412 35771 ft 395 kts 256°
2026-04-29 17:34 -38.15314 -58.76195 35773 ft 395 kts 256°
2026-04-29 17:35 -38.17171 -58.86378 35781 ft 395 kts 256°
2026-04-29 17:36 -38.18404 -58.93172 35779 ft 395 kts 256°
2026-04-29 17:36 -38.19631 -58.99960 35780 ft 395 kts 256°
2026-04-29 17:37 -38.20855 -59.06741 35780 ft 392 kts 258°
2026-04-29 17:37 -38.22060 -59.13460 35785 ft 390 kts 258°
2026-04-29 17:38 -38.23262 -59.20174 35793 ft 390 kts 258°
2026-04-29 17:38 -38.24461 -59.26896 35798 ft 390 kts 258°
2026-04-29 17:39 -38.25655 -59.33615 35796 ft 390 kts 258°
2026-04-29 17:39 -38.26845 -59.40338 35799 ft 390 kts 258°
2026-04-29 17:40 -38.28032 -59.47062 35803 ft 390 kts 258°
2026-04-29 17:40 -38.29217 -59.53794 35810 ft 390 kts 258°
2026-04-29 17:41 -38.30398 -59.60524 35808 ft 390 kts 258°
2026-04-29 17:41 -38.31573 -59.67263 35813 ft 390 kts 258°
2026-04-29 17:42 -38.32743 -59.74001 35817 ft 390 kts 258°
2026-04-29 17:42 -38.33910 -59.80739 35819 ft 390 kts 257°
2026-04-29 17:43 -38.35073 -59.87478 35819 ft 390 kts 257°
2026-04-29 17:43 -38.36233 -59.94223 35820 ft 390 kts 257°
2026-04-29 17:44 -38.37389 -60.00968 35827 ft 390 kts 257°
2026-04-29 17:44 -38.38541 -60.07712 35822 ft 390 kts 257°
2026-04-29 17:45 -38.39689 -60.14461 35826 ft 390 kts 257°
2026-04-29 17:45 -38.40832 -60.21206 35829 ft 390 kts 257°
2026-04-29 17:46 -38.41972 -60.27953 35830 ft 390 kts 257°
2026-04-29 17:46 -38.43107 -60.34704 35836 ft 390 kts 257°
2026-04-29 17:47 -38.44238 -60.41451 35832 ft 390 kts 257°
2026-04-29 17:47 -38.45365 -60.48197 35834 ft 390 kts 257°
2026-04-29 17:48 -38.46487 -60.54943 35836 ft 389 kts 257°
2026-04-29 17:48 -38.47605 -60.61691 35839 ft 389 kts 257°
2026-04-29 17:49 -38.48718 -60.68431 35838 ft 389 kts 257°
2026-04-29 17:49 -38.49828 -60.75178 35838 ft 389 kts 257°
2026-04-29 17:50 -38.50933 -60.81925 35842 ft 389 kts 257°
2026-04-29 17:50 -38.52035 -60.88671 35846 ft 389 kts 257°
2026-04-29 17:51 -38.53134 -60.95417 35849 ft 389 kts 257°
2026-04-29 17:51 -38.54226 -61.02166 35847 ft 389 kts 257°
2026-04-29 17:52 -38.55314 -61.08921 35845 ft 389 kts 257°
2026-04-29 17:52 -38.56400 -61.15675 35849 ft 389 kts 257°
2026-04-29 17:53 -38.57482 -61.22438 35851 ft 389 kts 257°
2026-04-29 17:53 -38.58561 -61.29204 35852 ft 389 kts 257°
2026-04-29 17:54 -38.59635 -61.35969 35854 ft 389 kts 257°
2026-04-29 17:54 -38.60705 -61.42735 35848 ft 389 kts 257°
2026-04-29 17:55 -38.61771 -61.49497 35860 ft 389 kts 257°
2026-04-29 17:55 -38.62832 -61.56262 35856 ft 389 kts 257°
2026-04-29 17:56 -38.63890 -61.63026 35854 ft 388 kts 257°
2026-04-29 17:56 -38.64942 -61.69783 35856 ft 388 kts 257°
2026-04-29 17:57 -38.65990 -61.76543 35860 ft 388 kts 257°
2026-04-29 17:57 -38.67033 -61.83296 35874 ft 387 kts 257°
2026-04-29 17:58 -38.68071 -61.90044 35879 ft 387 kts 257°
2026-04-29 17:58 -38.69104 -61.96785 35881 ft 387 kts 257°
2026-04-29 17:59 -38.70133 -62.03526 35880 ft 387 kts 257°
2026-04-29 17:59 -38.71158 -62.10263 35883 ft 386 kts 257°
2026-04-29 18:00 -38.72361 -62.16928 35874 ft 384 kts 247°
2026-04-29 18:00 -38.74363 -62.23259 35887 ft 384 kts 248°
2026-04-29 18:01 -38.76358 -62.29597 35881 ft 384 kts 248°
2026-04-29 18:01 -38.78355 -62.35932 35881 ft 384 kts 248°
2026-04-29 18:02 -38.80348 -62.42265 35880 ft 384 kts 248°
2026-04-29 18:02 -38.82336 -62.48599 35866 ft 384 kts 248°
2026-04-29 18:03 -38.84321 -62.54934 35863 ft 383 kts 248°
2026-04-29 18:03 -38.86301 -62.61271 35873 ft 383 kts 248°
2026-04-29 18:04 -38.88275 -62.67601 35868 ft 383 kts 248°
2026-04-29 18:04 -38.90244 -62.73930 35868 ft 382 kts 248°
2026-04-29 18:05 -38.92209 -62.80260 35877 ft 382 kts 248°
2026-04-29 18:05 -38.94170 -62.86592 35866 ft 382 kts 248°
2026-04-29 18:06 -38.96127 -62.92923 35872 ft 382 kts 248°
2026-04-29 18:06 -38.98080 -62.99259 35871 ft 382 kts 248°
2026-04-29 18:07 -39.00028 -63.05593 35873 ft 382 kts 248°
2026-04-29 18:07 -39.01971 -63.11926 35880 ft 381 kts 248°
2026-04-29 18:08 -39.03911 -63.18262 35875 ft 381 kts 248°
2026-04-29 18:08 -39.05847 -63.24595 35875 ft 381 kts 248°
2026-04-29 18:09 -39.07774 -63.30926 35864 ft 381 kts 248°
2026-04-29 18:09 -39.09698 -63.37255 35874 ft 380 kts 248°
2026-04-29 18:10 -39.11616 -63.43581 35875 ft 380 kts 248°
2026-04-29 18:10 -39.13529 -63.49901 35872 ft 379 kts 248°
2026-04-29 18:11 -39.15435 -63.56217 35871 ft 379 kts 248°
2026-04-29 18:11 -39.17336 -63.62530 35875 ft 379 kts 248°
2026-04-29 18:12 -39.19231 -63.68838 35876 ft 378 kts 248°
2026-04-29 18:12 -39.21123 -63.75149 35877 ft 378 kts 248°
2026-04-29 18:13 -39.23007 -63.81450 35877 ft 377 kts 248°
2026-04-29 18:13 -39.24887 -63.87751 35873 ft 377 kts 248°
2026-04-29 18:14 -39.26761 -63.94049 35879 ft 377 kts 248°
2026-04-29 18:14 -39.28631 -64.00345 35872 ft 376 kts 248°
2026-04-29 18:15 -39.30496 -64.06643 35873 ft 376 kts 248°
2026-04-29 18:15 -39.32355 -64.12931 35874 ft 376 kts 248°
2026-04-29 18:16 -39.34210 -64.19223 35874 ft 375 kts 248°
2026-04-29 18:16 -39.36060 -64.25510 35869 ft 375 kts 248°
2026-04-29 18:17 -39.37904 -64.31792 35870 ft 375 kts 248°
2026-04-29 18:17 -39.39743 -64.38075 35871 ft 374 kts 248°
2026-04-29 18:18 -39.41578 -64.44359 35873 ft 374 kts 248°
2026-04-29 18:18 -39.43410 -64.50644 35872 ft 374 kts 248°
2026-04-29 18:19 -39.45233 -64.56915 35871 ft 374 kts 248°
2026-04-29 18:19 -39.47054 -64.63195 35872 ft 373 kts 248°
2026-04-29 18:20 -39.48869 -64.69467 35868 ft 373 kts 248°
2026-04-29 18:20 -39.50679 -64.75740 35873 ft 372 kts 248°
2026-04-29 18:21 -39.52485 -64.82011 35868 ft 372 kts 248°
2026-04-29 18:21 -39.54283 -64.88272 35870 ft 371 kts 248°
2026-04-29 18:22 -39.56076 -64.94526 35867 ft 371 kts 248°
2026-04-29 18:22 -39.57863 -65.00780 35870 ft 370 kts 248°
2026-04-29 18:23 -39.59646 -65.07028 35869 ft 370 kts 248°
2026-04-29 18:23 -39.61422 -65.13271 35865 ft 370 kts 248°
2026-04-29 18:24 -39.63194 -65.19515 35869 ft 369 kts 248°
2026-04-29 18:24 -39.64961 -65.25754 35867 ft 369 kts 248°
2026-04-29 18:25 -39.66722 -65.31987 35869 ft 369 kts 248°
2026-04-29 18:25 -39.68477 -65.38216 35874 ft 368 kts 247°
2026-04-29 18:26 -39.70226 -65.44437 35873 ft 367 kts 247°
2026-04-29 18:26 -39.71970 -65.50654 35876 ft 367 kts 247°
2026-04-29 18:27 -39.73706 -65.56858 35868 ft 366 kts 247°
2026-04-29 18:27 -39.75436 -65.63057 35869 ft 365 kts 247°
2026-04-29 18:28 -39.77160 -65.69247 35868 ft 365 kts 247°
2026-04-29 18:28 -39.78877 -65.75429 35872 ft 364 kts 247°
2026-04-29 18:29 -39.80584 -65.81591 35873 ft 362 kts 247°
2026-04-29 18:29 -39.82281 -65.87731 35872 ft 361 kts 247°
2026-04-29 18:30 -39.83971 -65.93859 35873 ft 360 kts 247°
2026-04-29 18:30 -39.85651 -65.99964 35873 ft 359 kts 247°
2026-04-29 18:31 -39.87322 -66.06051 35873 ft 357 kts 247°
2026-04-29 18:31 -39.88983 -66.12117 35875 ft 356 kts 247°
2026-04-29 18:32 -39.90634 -66.18165 35876 ft 355 kts 247°
2026-04-29 18:32 -39.93095 -66.27201 35877 ft 352 kts 248°
2026-04-29 18:33 -39.94723 -66.33195 35876 ft 351 kts 248°
2026-04-29 18:33 -39.96072 -66.38173 35876 ft 350 kts 248°
2026-04-29 18:34 -39.97683 -66.44132 35869 ft 349 kts 248°
2026-04-29 18:34 -39.99550 -66.51058 35873 ft 347 kts 248°
2026-04-29 18:35 -40.01145 -66.56987 35872 ft 346 kts 248°
2026-04-29 18:35 -40.02731 -66.62898 35871 ft 346 kts 248°
2026-04-29 18:36 -40.04312 -66.68803 35870 ft 345 kts 248°
2026-04-29 18:36 -40.05885 -66.74691 35872 ft 344 kts 248°
2026-04-29 18:37 -40.07450 -66.80567 35873 ft 343 kts 248°
2026-04-29 18:37 -40.09008 -66.86427 35873 ft 342 kts 248°
2026-04-29 18:38 -40.10561 -66.92285 35868 ft 342 kts 248°
2026-04-29 18:38 -40.12107 -66.98128 35869 ft 341 kts 248°
2026-04-29 18:39 -40.13649 -67.03969 35866 ft 340 kts 248°
2026-04-29 18:39 -40.15184 -67.09799 35868 ft 340 kts 248°
2026-04-29 18:40 -40.16712 -67.15616 35866 ft 339 kts 248°
2026-04-29 18:40 -40.18236 -67.21430 35868 ft 338 kts 248°
2026-04-29 18:41 -40.21263 -67.33020 35866 ft 337 kts 248°
2026-04-29 18:42 -40.22768 -67.38802 35871 ft 336 kts 248°
2026-04-29 18:42 -40.24266 -67.44570 35872 ft 335 kts 248°
2026-04-29 18:43 -40.25758 -67.50331 35871 ft 335 kts 248°
2026-04-29 18:43 -40.27245 -67.56085 35870 ft 334 kts 248°
2026-04-29 18:44 -40.28728 -67.61829 35871 ft 333 kts 248°
2026-04-29 18:44 -40.30205 -67.67567 35870 ft 333 kts 248°
2026-04-29 18:45 -40.31678 -67.73300 35873 ft 332 kts 248°
2026-04-29 18:45 -40.33146 -67.79029 35872 ft 332 kts 248°
2026-04-29 18:46 -40.34609 -67.84751 35871 ft 331 kts 248°
2026-04-29 18:46 -40.36067 -67.90464 35869 ft 331 kts 248°
2026-04-29 18:47 -40.37524 -67.96185 35871 ft 331 kts 248°
2026-04-29 18:47 -40.38975 -68.01908 35874 ft 332 kts 249°
2026-04-29 18:48 -40.40413 -68.07639 35872 ft 332 kts 249°
2026-04-29 18:48 -40.41858 -68.13373 35870 ft 332 kts 249°
2026-04-29 18:49 -40.43303 -68.19112 35869 ft 332 kts 249°
2026-04-29 18:49 -40.44746 -68.24858 35881 ft 332 kts 249°
2026-04-29 18:50 -40.46185 -68.30603 35876 ft 332 kts 249°
2026-04-29 18:50 -40.47622 -68.36355 35878 ft 332 kts 249°
2026-04-29 18:51 -40.49057 -68.42110 35880 ft 332 kts 249°
2026-04-29 18:51 -40.50489 -68.47864 35880 ft 332 kts 249°
2026-04-29 18:52 -40.51920 -68.53634 35881 ft 333 kts 249°
2026-04-29 18:52 -40.53348 -68.59401 35882 ft 333 kts 249°
2026-04-29 18:53 -40.54774 -68.65176 35881 ft 333 kts 249°
2026-04-29 18:53 -40.56200 -68.70965 35881 ft 334 kts 249°
2026-04-29 18:54 -40.57624 -68.76761 35887 ft 334 kts 249°
2026-04-29 18:54 -40.59047 -68.82566 35894 ft 334 kts 249°
2026-04-29 18:55 -40.60468 -68.88381 35883 ft 335 kts 249°
2026-04-29 18:55 -40.61889 -68.94205 35900 ft 335 kts 249°
2026-04-29 18:56 -40.63309 -69.00042 35903 ft 335 kts 250°
2026-04-29 18:56 -40.64725 -69.05878 35906 ft 335 kts 250°
2026-04-29 18:57 -40.66137 -69.11711 35883 ft 334 kts 250°
2026-04-29 18:57 -40.66827 -69.14568 35668 ft 323 kts 250°
2026-04-29 18:57 -40.67493 -69.17328 35534 ft 310 kts 250°
2026-04-29 18:58 -40.68138 -69.20001 35176 ft 304 kts 250°
2026-04-29 18:58 -40.68773 -69.22642 34726 ft 301 kts 250°
2026-04-29 18:58 -40.69402 -69.25255 34272 ft 298 kts 250°
2026-04-29 18:58 -40.70025 -69.27847 33800 ft 297 kts 250°
2026-04-29 18:59 -40.70643 -69.30425 33268 ft 295 kts 250°
2026-04-29 18:59 -40.71257 -69.32985 32797 ft 292 kts 250°
2026-04-29 18:59 -40.71866 -69.35525 32328 ft 289 kts 250°
2026-04-29 18:59 -40.72471 -69.38058 31880 ft 294 kts 251°
2026-04-29 19:00 -40.73091 -69.40652 31428 ft 299 kts 251°
2026-04-29 19:00 -40.73717 -69.43275 30960 ft 303 kts 251°
2026-04-29 19:00 -40.74350 -69.45931 30493 ft 305 kts 251°
2026-04-29 19:00 -40.74983 -69.48592 30031 ft 305 kts 251°
2026-04-29 19:01 -40.75618 -69.51258 29502 ft 305 kts 251°
2026-04-29 19:01 -40.76250 -69.53922 28999 ft 305 kts 251°
2026-04-29 19:01 -40.76883 -69.56587 28541 ft 305 kts 251°
2026-04-29 19:01 -40.77514 -69.59250 28081 ft 305 kts 251°
2026-04-29 19:02 -40.78145 -69.61918 27632 ft 305 kts 252°
2026-04-29 19:02 -40.78565 -69.63693 27344 ft 305 kts 252°
2026-04-29 19:02 -40.79404 -69.67246 26773 ft 304 kts 252°
2026-04-29 19:02 -40.80032 -69.69907 26339 ft 305 kts 252°
2026-04-29 19:03 -40.80660 -69.72572 25915 ft 305 kts 252°
2026-04-29 19:03 -40.81287 -69.75236 25497 ft 305 kts 252°
2026-04-29 19:03 -40.81916 -69.77913 25088 ft 305 kts 252°
2026-04-29 19:03 -40.82543 -69.80584 24680 ft 306 kts 252°
2026-04-29 19:04 -40.83171 -69.83260 24272 ft 306 kts 252°
2026-04-29 19:04 -40.83798 -69.85939 23882 ft 306 kts 252°
2026-04-29 19:04 -40.84425 -69.88618 23479 ft 306 kts 253°
2026-04-29 19:04 -40.85052 -69.91301 23018 ft 306 kts 253°
2026-04-29 19:05 -40.85675 -69.93969 22605 ft 304 kts 253°
2026-04-29 19:05 -40.86293 -69.96619 22222 ft 301 kts 253°
2026-04-29 19:05 -40.86906 -69.99249 21849 ft 299 kts 253°
2026-04-29 19:05 -40.87512 -70.01857 21490 ft 296 kts 253°
2026-04-29 19:06 -40.88112 -70.04442 21125 ft 294 kts 253°
2026-04-29 19:06 -40.88708 -70.07008 20772 ft 292 kts 253°
2026-04-29 19:06 -40.89884 -70.12084 20087 ft 287 kts 253°
2026-04-29 19:07 -40.90467 -70.14600 19744 ft 286 kts 253°
2026-04-29 19:07 -40.90852 -70.16268 19523 ft 285 kts 253°
2026-04-29 19:07 -40.91629 -70.19638 19062 ft 291 kts 253°
2026-04-29 19:07 -40.92222 -70.22205 18716 ft 294 kts 253°
2026-04-29 19:08 -40.92817 -70.24791 18386 ft 295 kts 253°
2026-04-29 19:08 -40.93414 -70.27382 18021 ft 295 kts 253°
2026-04-29 19:08 -40.94008 -70.29964 17647 ft 293 kts 253°
2026-04-29 19:08 -40.94597 -70.32526 17289 ft 290 kts 252°
2026-04-29 19:09 -40.95178 -70.35062 16955 ft 288 kts 252°
2026-04-29 19:09 -40.95755 -70.37578 16624 ft 285 kts 253°
2026-04-29 19:09 -40.96325 -70.40068 16292 ft 282 kts 253°
2026-04-29 19:09 -40.96889 -70.42530 15974 ft 279 kts 252°
2026-04-29 19:10 -40.97637 -70.44874 15599 ft 278 kts 236°
2026-04-29 19:10 -40.98816 -70.46880 15283 ft 276 kts 234°
2026-04-29 19:10 -40.99997 -70.48863 14972 ft 274 kts 234°
2026-04-29 19:10 -41.01179 -70.50821 14663 ft 272 kts 233°
2026-04-29 19:11 -41.02359 -70.52759 14352 ft 270 kts 233°
2026-04-29 19:11 -41.03532 -70.54675 14056 ft 267 kts 233°
2026-04-29 19:11 -41.04709 -70.56592 13567 ft 270 kts 233°
2026-04-29 19:11 -41.05890 -70.58511 12985 ft 267 kts 233°
2026-04-29 19:12 -41.07054 -70.60403 12496 ft 265 kts 233°
2026-04-29 19:12 -41.08212 -70.62286 12009 ft 263 kts 233°
2026-04-29 19:12 -41.09356 -70.64146 11516 ft 259 kts 234°
2026-04-29 19:12 -41.10110 -70.65371 11205 ft 256 kts 234°
2026-04-29 19:13 -41.11589 -70.67778 10570 ft 250 kts 234°
2026-04-29 19:13 -41.12677 -70.69550 10096 ft 246 kts 234°
2026-04-29 19:13 -41.13745 -70.71290 9627 ft 242 kts 234°
2026-04-29 19:13 -41.14798 -70.73006 9164 ft 238 kts 234°
2026-04-29 19:14 -41.15828 -70.74686 8674 ft 233 kts 234°
2026-04-29 19:14 -41.16839 -70.76336 8265 ft 229 kts 234°
2026-04-29 19:14 -41.17835 -70.77961 7829 ft 226 kts 234°
2026-04-29 19:14 -41.18817 -70.79566 7397 ft 223 kts 234°
2026-04-29 19:15 -41.19757 -70.81105 7194 ft 208 kts 235°
2026-04-29 19:15 -41.20642 -70.82550 6997 ft 197 kts 235°
2026-04-29 19:15 -41.21488 -70.83933 6801 ft 190 kts 235°
2026-04-29 19:15 -41.22303 -70.85268 6572 ft 180 kts 235°
2026-04-29 19:16 -41.23056 -70.86495 6459 ft 168 kts 236°
2026-04-29 19:16 -41.23745 -70.87715 6369 ft 158 kts 249°
2026-04-29 19:16 -41.23845 -70.89081 6293 ft 152 kts 282°
2026-04-29 19:16 -41.23569 -70.90437 6334 ft 151 kts 283°
2026-04-29 19:17 -41.23254 -70.91763 6225 ft 149 kts 285°
2026-04-29 19:17 -41.22902 -70.93029 6212 ft 145 kts 287°
2026-04-29 19:17 -41.22529 -70.94250 6094 ft 141 kts 289°
2026-04-29 19:17 -41.22148 -70.95429 5901 ft 138 kts 289°
2026-04-29 19:18 -41.21761 -70.96582 5735 ft 137 kts 290°
2026-04-29 19:18 -41.21502 -70.97349 5618 ft 137 kts 290°
2026-04-29 19:18 -41.20978 -70.98874 5379 ft 136 kts 291°
2026-04-29 19:18 -41.20587 -71.00012 5204 ft 136 kts 291°
2026-04-29 19:19 -41.20195 -71.01152 5031 ft 136 kts 291°
2026-04-29 19:19 -41.19796 -71.02299 4852 ft 137 kts 291°
2026-04-29 19:19 -41.19398 -71.03445 4671 ft 137 kts 291°
2026-04-29 19:19 -41.19002 -71.04590 4456 ft 137 kts 292°
2026-04-29 19:20 -41.18607 -71.05726 4212 ft 135 kts 293°
2026-04-29 19:20 -41.18214 -71.06855 4068 ft 135 kts 292°
2026-04-29 19:20 -41.17825 -71.07976 3837 ft 133 kts 292°
2026-04-29 19:20 -41.17442 -71.09079 3658 ft 131 kts 292°
2026-04-29 19:21 -41.17064 -71.10167 3493 ft 130 kts 293°
2026-04-29 19:21 -41.16688 -71.11250 3327 ft 130 kts 293°